TimeCDT,TemperatureF,Dew PointF,Humidity,Sea Level PressureIn,VisibilityMPH,Wind Direction,Wind SpeedMPH,Gust SpeedMPH,PrecipitationIn,Events,Conditions,WindDirDegrees,DateUTC
12:13 AM,46.4,39.2,76,30.04,10.0,East,5.8,-,N/A,,Clear,90,2013-06-03 05:13:00
12:33 AM,46.4,39.2,76,30.04,10.0,East,5.8,-,N/A,,Clear,80,2013-06-03 05:33:00
12:54 AM,44.6,39.2,81,30.04,10.0,East,4.6,-,N/A,,Clear,90,2013-06-03 05:54:00
1:13 AM,44.6,39.2,81,30.04,10.0,East,3.5,-,N/A,,Clear,100,2013-06-03 06:13:00
1:33 AM,46.4,41.0,81,30.04,10.0,Calm,Calm,-,N/A,,Clear,0,2013-06-03 06:33:00
1:54 AM,46.4,39.2,76,30.04,10.0,Calm,Calm,-,N/A,,Clear,0,2013-06-03 06:54:00
2:13 AM,46.4,41.0,81,30.04,10.0,Calm,Calm,-,N/A,,Clear,0,2013-06-03 07:13:00
2:33 AM,46.4,41.0,81,30.04,10.0,Calm,Calm,-,N/A,,Clear,0,2013-06-03 07:33:00
2:53 AM,46.4,41.0,81,30.04,10.0,Calm,Calm,-,N/A,,Clear,0,2013-06-03 07:53:00
3:13 AM,44.6,41.0,87,30.04,10.0,Calm,Calm,-,N/A,,Clear,0,2013-06-03 08:13:00
3:34 AM,46.4,41.0,81,30.04,10.0,Calm,Calm,-,N/A,,Clear,0,2013-06-03 08:34:00
3:53 AM,44.6,39.2,81,30.04,10.0,Calm,Calm,-,N/A,,Clear,0,2013-06-03 08:53:00
4:13 AM,44.6,39.2,81,30.05,10.0,Calm,Calm,-,N/A,,Clear,0,2013-06-03 09:13:00
4:34 AM,44.6,39.2,81,30.05,10.0,Calm,Calm,-,N/A,,Clear,0,2013-06-03 09:34:00
4:53 AM,44.6,39.2,81,30.06,10.0,ENE,6.9,-,N/A,,Clear,70,2013-06-03 09:53:00
5:13 AM,42.8,39.2,87,30.07,10.0,ENE,6.9,-,N/A,,Clear,60,2013-06-03 10:13:00
5:34 AM,42.8,37.4,81,30.07,10.0,NE,8.1,-,N/A,,Clear,50,2013-06-03 10:34:00
5:53 AM,42.8,37.4,81,30.08,10.0,NE,6.9,-,N/A,,Clear,50,2013-06-03 10:53:00
6:13 AM,42.8,37.4,81,30.08,10.0,NE,6.9,-,N/A,,Clear,50,2013-06-03 11:13:00
6:34 AM,44.6,37.4,76,30.08,10.0,NE,4.6,-,N/A,,Clear,40,2013-06-03 11:34:00
6:53 AM,44.6,37.4,76,30.08,10.0,NE,6.9,-,N/A,,Clear,40,2013-06-03 11:53:00
7:13 AM,44.6,37.4,76,30.09,10.0,NE,6.9,-,N/A,,Clear,50,2013-06-03 12:13:00
7:34 AM,44.6,37.4,76,30.09,10.0,ENE,4.6,-,N/A,,Clear,60,2013-06-03 12:34:00
7:53 AM,44.6,37.4,76,30.10,10.0,ENE,8.1,-,N/A,,Clear,70,2013-06-03 12:53:00
8:14 AM,46.4,37.4,71,30.11,10.0,East,4.6,-,N/A,,Clear,80,2013-06-03 13:14:00
8:34 AM,46.4,37.4,71,30.11,10.0,East,5.8,-,N/A,,Clear,80,2013-06-03 13:34:00
8:53 AM,46.4,37.4,71,30.11,10.0,East,8.1,-,N/A,,Clear,80,2013-06-03 13:53:00
9:14 AM,46.4,37.4,71,30.11,10.0,East,9.2,-,N/A,,Clear,80,2013-06-03 14:14:00
9:34 AM,46.4,37.4,71,30.12,10.0,ENE,8.1,-,N/A,,Clear,70,2013-06-03 14:34:00
9:53 AM,46.4,37.4,71,30.12,10.0,ENE,9.2,-,N/A,,Clear,70,2013-06-03 14:53:00
10:14 AM,46.4,37.4,71,30.13,10.0,ENE,6.9,-,N/A,,Clear,70,2013-06-03 15:14:00
10:34 AM,46.4,37.4,71,30.12,10.0,ENE,8.1,-,N/A,,Clear,60,2013-06-03 15:34:00
10:53 AM,48.2,37.4,66,30.12,10.0,ENE,6.9,-,N/A,,Clear,70,2013-06-03 15:53:00
11:14 AM,48.2,37.4,66,30.12,10.0,East,5.8,-,N/A,,Clear,80,2013-06-03 16:14:00
11:34 AM,48.2,37.4,66,30.12,10.0,ENE,5.8,-,N/A,,Clear,60,2013-06-03 16:34:00
11:53 AM,48.2,37.4,66,30.13,10.0,East,6.9,-,N/A,,Clear,80,2013-06-03 16:53:00
12:14 PM,50.0,37.4,62,30.12,10.0,East,6.9,-,N/A,,Clear,80,2013-06-03 17:14:00
12:33 PM,48.2,39.2,71,30.11,10.0,ENE,5.8,-,N/A,,Clear,70,2013-06-03 17:33:00
12:53 PM,48.2,39.2,71,30.11,10.0,NE,4.6,-,N/A,,Clear,40,2013-06-03 17:53:00
1:13 PM,48.2,39.2,71,30.10,10.0,NNE,5.8,-,N/A,,Clear,20,2013-06-03 18:13:00
1:33 PM,48.2,39.2,71,30.10,10.0,North,4.6,-,N/A,,Clear,360,2013-06-03 18:33:00
1:54 PM,48.2,37.4,66,30.10,10.0,North,5.8,-,N/A,,Clear,350,2013-06-03 18:54:00
2:13 PM,50.0,37.4,62,30.10,10.0,North,4.6,-,N/A,,Clear,350,2013-06-03 19:13:00
2:33 PM,50.0,37.4,62,30.10,10.0,North,4.6,-,N/A,,Clear,360,2013-06-03 19:33:00
2:54 PM,50.0,39.2,66,30.10,7.0,North,4.6,-,N/A,,Clear,10,2013-06-03 19:54:00
3:13 PM,51.8,39.2,62,30.09,10.0,NE,6.9,-,N/A,,Unknown,40,2013-06-03 20:13:00
3:33 PM,53.6,39.2,58,30.07,10.0,ENE,5.8,-,N/A,,Clear,60,2013-06-03 20:33:00
3:54 PM,51.8,39.2,62,30.07,10.0,NNE,4.6,-,N/A,,Clear,20,2013-06-03 20:54:00
4:13 PM,51.8,39.2,62,30.07,10.0,ENE,4.6,-,N/A,,Clear,70,2013-06-03 21:13:00
4:33 PM,53.6,41.0,62,30.07,10.0,ENE,6.9,-,N/A,,Clear,70,2013-06-03 21:33:00
4:54 PM,51.8,39.2,62,30.07,10.0,East,3.5,-,N/A,,Clear,80,2013-06-03 21:54:00
5:13 PM,51.8,39.2,62,30.06,10.0,ENE,6.9,-,N/A,,Clear,60,2013-06-03 22:13:00
5:34 PM,50.0,39.2,66,30.06,10.0,ENE,4.6,-,N/A,,Clear,70,2013-06-03 22:34:00
5:54 PM,50.0,39.2,66,30.06,10.0,Calm,Calm,-,N/A,,Clear,0,2013-06-03 22:54:00
6:13 PM,48.2,39.2,71,30.05,10.0,Calm,Calm,-,N/A,,Clear,0,2013-06-03 23:13:00
6:34 PM,48.2,39.2,71,30.04,10.0,ENE,4.6,-,N/A,,Clear,60,2013-06-03 23:34:00
6:54 PM,48.2,39.2,71,30.05,10.0,NE,3.5,-,N/A,,Clear,40,2013-06-03 23:54:00
7:13 PM,48.2,39.2,71,30.05,10.0,East,5.8,-,N/A,,Clear,90,2013-06-04 00:13:00
7:34 PM,48.2,39.2,71,30.06,10.0,East,5.8,-,N/A,,Clear,90,2013-06-04 00:34:00
7:54 PM,48.2,39.2,71,30.08,10.0,East,5.8,-,N/A,,Clear,90,2013-06-04 00:54:00
8:13 PM,48.2,39.2,71,30.09,10.0,ENE,4.6,-,N/A,,Clear,60,2013-06-04 01:13:00
8:34 PM,48.2,37.4,66,30.10,10.0,ENE,4.6,-,N/A,,Clear,60,2013-06-04 01:34:00
8:53 PM,48.2,39.2,71,30.10,10.0,North,4.6,-,N/A,,Clear,350,2013-06-04 01:53:00
9:14 PM,46.4,37.4,71,30.11,10.0,North,3.5,-,N/A,,Clear,10,2013-06-04 02:14:00
9:34 PM,46.4,37.4,71,30.11,10.0,Calm,Calm,-,N/A,,Scattered Clouds,0,2013-06-04 02:34:00
9:53 PM,46.4,39.2,76,30.11,10.0,NE,6.9,-,N/A,,Scattered Clouds,40,2013-06-04 02:53:00
10:14 PM,48.2,39.2,71,30.11,10.0,NNE,8.1,-,N/A,,Scattered Clouds,30,2013-06-04 03:14:00
10:34 PM,48.2,41.0,76,30.12,10.0,North,4.6,-,N/A,,Scattered Clouds,10,2013-06-04 03:34:00
10:53 PM,46.4,39.2,76,30.12,10.0,East,3.5,-,N/A,,Mostly Cloudy,80,2013-06-04 03:53:00
11:14 PM,48.2,39.2,71,30.12,10.0,ESE,3.5,-,N/A,,Scattered Clouds,120,2013-06-04 04:14:00
11:34 PM,48.2,41.0,76,30.11,10.0,ENE,4.6,-,N/A,,Mostly Cloudy,60,2013-06-04 04:34:00
11:53 PM,48.2,39.2,71,30.12,10.0,East,3.5,-,N/A,,Scattered Clouds,90,2013-06-04 04:53:00